Flag for Sudan Weather past 2 weeks in Kassala, Sudan

Now
N/A

Passing clouds.


Feels Like: N/A
Forecast: 79 / 103 °F
Wind: 6 mph from Southwest

Location: Khartoum Airport

Current Time: Jul 31, 2015 at 7:12:17 PM

Latest Report: Jul 31, 2015 at 6:30 PM


Visibility: N/A

Pressure: 29.71 "Hg

Humidity: N/A

Dew point: N/A

Location of KassalaLocation

Historic Weather in Kassala — Graph

°F

Kassala temperature yesterday

Maximum temperature yesterday: 104 °F (at 5:00 PM)
Minimum temperature yesterday: 84 °F (at 8:00 AM)
Average temperature yesterday: 94 °F

Past Weeks' High & Low Weather Summary

 TemperatureHumidityPressure
High109 °F (Jul 18, 5:00 PM)66% (Jul 17, 12:00 AM)32.43 "Hg (Jul 17, 12:00 AM)
Low79 °F (Jul 22, 6:00 AM)7% (Jul 18, 1:00 PM)29.68 "Hg (Jul 18, 5:30 PM)
Average95 °F30%29.81 "Hg
* Reported Jul 16 6:00 PM — Jul 31 6:00 PM, Kassala, Weather by CustomWeather, © 2015

Note: Actual official high and low records may vary slightly from our data, if they occured in-between our weather recording intervals... More about our weather records

Advertising

Kassala weather history for previous 24 hours

 ConditionsComfort  
Time TempWeatherWind HumidityBarometerVisibility
6:00 PM
Fri, Jul 31
104 °FPassing clouds.8 mph20%29.71 "HgN/A
5:30 PMN/APassing clouds.9 mphN/A29.71 "HgN/A
5:00 PM104 °FPassing clouds.8 mph20%29.74 "HgN/A
4:30 PMN/APassing clouds.8 mphN/A29.74 "HgN/A
3:30 PMN/APassing clouds.12 mphN/A29.77 "HgN/A
3:00 PM102 °FPassing clouds.12 mph23%29.77 "HgN/A
2:30 PMN/ASunny.12 mphN/A29.80 "Hg10 mi
2:00 PM100 °FPassing clouds.12 mph24%29.80 "HgN/A
1:30 PMN/ASunny.14 mphN/A29.83 "Hg10 mi
1:00 PM100 °FSunny.14 mph24%29.83 "Hg10 mi
12:30 PMN/ASunny.12 mphN/A29.86 "Hg10 mi
12:00 PM99 °FSunny.16 mph27%29.86 "Hg10 mi
11:30 AMN/ASunny.17 mphN/A29.86 "Hg10 mi
10:30 AMN/ASunny.15 mphN/A29.86 "Hg10 mi
10:00 AM93 °FSunny.13 mph32%29.86 "Hg10 mi
9:30 AMN/ASunny.14 mphN/A29.86 "Hg10 mi
9:00 AM86 °FSunny.13 mph43%29.86 "Hg10 mi
8:30 AMN/ASunny.14 mphN/A29.86 "Hg10 mi
8:00 AM84 °FSunny.17 mph48%29.86 "Hg10 mi
7:30 AMN/ASunny.14 mphN/A29.86 "Hg10 mi
7:00 AM81 °FSunny.14 mph58%29.86 "Hg10 mi
6:30 AMN/AClear.9 mphN/A29.86 "Hg10 mi
6:00 AM81 °FClear.12 mph62%29.86 "Hg10 mi
5:30 AMN/AClear.12 mphN/A29.83 "Hg10 mi
5:00 AM82 °FClear.9 mph58%29.83 "Hg10 mi
4:30 AMN/AClear.8 mphN/A29.83 "Hg10 mi
4:00 AM81 °FClear.5 mph58%29.83 "Hg10 mi
3:30 AMN/AClear.6 mphN/A29.80 "Hg10 mi
3:00 AM82 °FClear.10 mph51%29.80 "Hg10 mi
2:00 AM84 °FClear.12 mph48%29.80 "Hg10 mi
1:30 AMN/AClear.14 mphN/A29.80 "Hg10 mi
1:00 AMN/APassing clouds.18 mphN/AN/AN/A
12:30 AMN/APassing clouds.15 mphN/AN/AN/A
11:30 PM
Thu, Jul 30
N/APassing clouds.8 mphN/AN/AN/A
11:00 PM90 °FPassing clouds.14 mph43%29.89 "HgN/A
10:30 PMN/APassing clouds.8 mphN/AN/AN/A
10:00 PMN/APassing clouds.9 mphN/AN/AN/A
9:30 PMN/APassing clouds.17 mphN/AN/AN/A
9:00 PM97 °FPassing clouds.20 mph30%29.77 "HgN/A
8:30 PMN/A18 mphN/AN/AN/A
8:00 PM99 °FClear.20 mph27%29.74 "Hg10 mi
7:30 PMN/A16 mphN/AN/AN/A
7:00 PM102 °FPassing clouds.16 mph26%29.74 "HgN/A
Weather by CustomWeather, © 2015

See weather overviewHow to use our weather pages